Terminal Aerodrome Forecast
Issued by NWS

Home | Current Version | Previous Version | Graphics & Text | Print | Product List | Glossary On
Versions: 1 2 3 4 5 6 7 8 9 10 11 12 13 14
534
FTUS41 KCLE 171140
TAFFDY
TAF
KFDY 171140Z 1712/1812 24006KT P6SM OVC009
      TEMPO 1712/1714 SCT008
     FM171400 25008KT P6SM BKN045
     FM171900 25012KT P6SM SCT040 BKN100=

USA.gov is the U.S. government's official web portal to all federal, state and local government web resources and services.